User: anonymous   Login
Location: Oak Glen
(34.0495°N, 116.9470°E)
Time: 06:59:35
(UTC-08:00)
Language:

BUGSAT 1 - Orbit

View from above orbital plane
View from above orbital plane
View from above satellite
View from above satellite

Ground track
Ground track

The orbit data is extracted from the following two-line orbital elements,

1 40014U 14033E   18344.45241216  .00000442  00000-0  45544-4 0  9991
2 40014  97.9930 283.0103 0031261 333.5742  26.3879 14.95159879244075
Epoch (UTC): 10 December 2018 10:51:28
Eccentricity: 0.0031261
inclination: 97.9930°
perigee height: 560 km
apogee height: 603 km
right ascension of ascending node: 283.0103°
argument of perigee: 333.5742°
revolutions per day: 14.95159879
mean anomaly at epoch: 26.3879°
orbit number at epoch: 24407

The dashed part of the orbit path shows where the satellite is in the earth's shadow,  

DLR